Location: Capelle
(50.3413°N, 1.9974°E)
Time: 22:34:34
(UTC+00:00)

Cosmos 1980 Rocket - Pass Details

Date: 12 January 2026
Orbit: 829 x 847 km, 71.0° (Epoch: 7 February)

Event Time Altitude Azimuth Distance (km) Brightness Sun altitude
Rises 20:08:22 0° 331° (NNW) 3,384 5.8 -36.7°
Reaches altitude 10° 20:10:51 10° 335° (NNW) 2,447 4.9 -37.0°
Enters shadow 20:11:58 16° 338° (NNW) 2,032 4.4 -37.2°
